FW0386 Weather Reports


time (UTC)temp
C
wind
direction
speed
KPH
gust
KPH
rain 1hr
cm
rain 24hr
cm
rain mn
cm
humidity
%
barometer
mb
20260905211545 16 281 1.6 8.0 0.00 0.23 0.23 63 1022.5
20260905210109 16 287 1.6 8.0 0.00 0.23 0.23 67 1022.3
20260905204509 14 268 0.0 0.0 0.00 0.23 0.23 73 1022.3
20260905203015 14 268 0.0 0.0 0.00 0.23 0.23 72 1022.1
20260905201539 15 268 0.0 0.0 0.00 0.23 0.23 71 1021.9
20260905200050 15 270 0.0 0.0 0.00 0.23 0.23 70 1021.6
20260905194559 15 270 0.0 1.6 0.00 0.23 0.23 69 1021.6
20260905193005 16 270 0.0 1.6 0.00 0.23 0.23 69 1021.3
20260905191521 17 271 0.0 3.2 0.00 0.23 0.23 68 1021.1
20260905190030 17 266 1.6 6.4 0.00 0.23 0.23 68 1021.0
20260905184547 17 276 0.0 3.2 0.00 0.23 0.23 67 1020.6
20260905183047 17 264 0.0 3.2 0.00 0.23 0.23 65 1020.1
20260905181601 18 276 0.0 4.8 0.00 0.23 0.23 64 1020.0
20260905180009 18 256 0.0 4.8 0.00 0.23 0.23 63 1019.8
20260905174533 18 248 0.0 4.8 0.00 0.23 0.23 63 1019.6
20260905173052 19 300 0.0 3.2 0.00 0.23 0.23 61 1019.4
20260905171607 20 276 0.0 12.9 0.00 0.23 0.23 59 1019.3
20260905170015 20 261 0.0 9.7 0.00 0.23 0.23 57 1019.2
20260905164527 20 290 3.2 14.5 0.00 0.23 0.23 55 1019.2
20260905163048 21 280 4.8 19.3 0.00 0.23 0.23 53 1019.0
20260905161553 21 287 9.7 19.3 0.00 0.23 0.23 52 1019.1
20260905160010 21 254 1.6 22.5 0.00 0.23 0.23 52 1018.8
20260905154513 22 281 3.2 17.7 0.00 0.23 0.23 50 1018.5
20260905153043 21 316 4.8 17.7 0.00 0.23 0.23 50 1018.7
20260905151601 21 297 6.4 22.5 0.00 0.23 0.23 50 1018.7
20260905150012 21 275 3.2 17.7 0.00 0.23 0.23 50 1018.5
20260905144524 21 252 3.2 19.3 0.00 0.23 0.23 50 1018.4
20260905143034 21 273 4.8 20.9 0.00 0.23 0.23 53 1018.5
20260905141539 21 250 6.4 22.5 0.00 0.23 0.23 52 1018.7
20260905140001 22 233 3.2 17.7 0.00 0.23 0.23 50 1018.6
20260905134601 21 269 9.7 27.4 0.00 0.23 0.23 51 1018.7
20260905133030 21 241 8.0 24.1 0.00 0.23 0.23 50 1018.7
20260905131602 21 259 6.4 22.5 0.00 0.23 0.23 52 1018.8
20260905130017 21 338 8.0 29.0 0.00 0.23 0.23 52 1018.9
20260905124511 22 274 3.2 16.1 0.00 0.23 0.23 52 1018.7
20260905123037 22 243 6.4 17.7 0.00 0.23 0.23 52 1018.8
20260905121604 21 100 4.8 17.7 0.00 0.23 0.23 54 1018.9
20260905120006 21 235 6.4 22.5 0.00 0.23 0.23 53 1018.9
20260905114530 20 300 9.7 25.7 0.00 0.23 0.23 56 1019.0
20260905113037 20 310 6.4 17.7 0.00 0.23 0.23 57 1019.0
20260905111611 20 266 8.0 22.5 0.00 0.23 0.23 57 1019.1
20260905110009 20 239 6.4 19.3 0.00 0.23 0.23 57 1019.0
20260905104528 20 287 11.3 30.6 0.00 0.23 0.23 57 1019.0
20260905103019 20 257 6.4 22.5 0.00 0.23 0.23 61 1019.1
20260905101550 20 304 4.8 22.5 0.00 0.23 0.23 62 1019.0
20260905100108 19 217 4.8 14.5 0.00 0.23 0.23 65 1019.2
20260905094525 18 241 3.2 19.3 0.00 0.23 0.23 68 1019.2
20260905093030 19 284 1.6 16.1 0.00 0.23 0.23 69 1019.2
20260905091553 18 298 4.8 12.9 0.00 0.23 0.23 71 1019.2
20260905090055 17 230 3.2 17.7 0.00 0.23 0.23 73 1018.9
20260905084510 17 219 1.6 12.9 0.00 0.23 0.23 77 1018.9
20260905083016 16 271 1.6 9.7 0.00 0.23 0.23 82 1019.0
20260905081533 15 224 4.8 12.9 0.00 0.23 0.23 83 1019.0
20260905080057 15 307 1.6 9.7 0.00 0.23 0.23 85 1019.0
20260905074503 15 37 1.6 11.3 0.00 0.23 0.23 86 1018.6
20260905073032 14 194 0.0 9.7 0.00 0.23 0.23 88 1018.3
20260905071528 13 285 0.0 6.4 0.03 0.23 0.23 89 1018.0
20260905070048 13 267 0.0 6.4 0.05 0.23 0.23 89 1017.7
20260905064557 13 279 0.0 8.0 0.08 0.23 0.23 89 1017.9
20260905063006 13 237 3.2 17.7 0.10 0.23 0.23 88 1016.9
20260905061508 13 209 1.6 19.3 0.15 0.20 0.20 88 1017.9
20260905060030 13 238 4.8 14.5 0.15 0.15 0.15 88 1018.2
20260905054535 13 238 1.6 6.4 0.13 0.15 0.15 88 1018.2
20260905053058 13 261 1.6 9.7 0.10 0.13 0.13 87 1018.1
20260905051507 14 280 1.6 8.0 0.05 0.05 0.05 84 1018.2
20260905050022 15 277 1.6 4.8 0.00 0.03 0.03 82 1017.6
20260905044528 14 262 0.0 6.4 0.00 0.03 0.03 82 1017.1
20260905043107 14 278 0.0 4.8 0.03 0.03 0.03 83 1017.4
20260905041550 14 264 0.0 6.4 0.03 0.03 0.03 83 1017.0
20260905040006 15 223 0.0 3.2 0.03 0.03 0.03 82 1016.8
20260905034511 15 296 1.6 6.4 0.03 0.03 0.03 78 1016.5
20260905033025 16 334 1.6 8.0 0.00 0.00 0.00 73 1016.4
20260905031530 16 224 1.6 8.0 0.00 0.00 0.00 71 1015.7
20260905030052 17 285 0.0 8.0 0.00 0.00 0.00 69 1015.7
20260905024517 17 294 1.6 9.7 0.00 0.00 0.00 67 1016.2
20260905023016 17 330 1.6 4.8 0.00 0.00 0.00 72 1015.3
20260905021547 17 345 0.0 4.8 0.00 0.00 0.00 72 1014.9
20260905020049 17 315 0.0 6.4 0.00 0.00 0.00 72 1015.1
20260905014508 17 255 1.6 9.7 0.00 0.00 0.00 72 1014.8
20260905013020 17 273 0.0 17.7 0.00 0.00 0.00 73 1014.7
20260905011532 17 48 3.2 14.5 0.00 0.00 0.00 73 1014.6
20260905010036 18 309 1.6 16.1 0.00 0.00 0.00 73 1014.4
20260905004552 18 68 4.8 17.7 0.00 0.00 0.00 71 1014.5
20260905003058 20 44 6.4 24.1 0.00 0.00 0.00 68 1013.7
20260905001513 22 248 1.6 8.0 0.00 0.00 0.00 61 1012.1
20260905000029 22 280 0.0 4.8 0.00 0.00 0.00 61 1012.1
20260904234540 22 253 0.0 6.4 0.00 0.00 0.00 61 1012.0
20260904233100 22 264 0.0 8.0 0.00 0.00 0.00 60 1012.0
20260904231518 22 287 0.0 6.4 0.00 0.00 0.00 60 1012.0
20260904230013 22 147 0.0 6.4 0.00 0.00 0.00 61 1011.9
20260904224537 22 248 0.0 3.2 0.00 0.00 0.00 61 1011.8
20260904223025 22 272 0.0 3.2 0.00 0.00 0.00 62 1011.8
20260904221548 21 225 0.0 1.6 0.00 0.00 0.00 64 1011.7
20260904220010 21 266 0.0 1.6 0.00 0.00 0.00 64 1011.6
20260904214606 20 264 0.0 1.6 0.00 0.00 0.00 66 1011.5
20260904213016 20 264 0.0 0.0 0.00 0.00 0.00 66 1011.5